Fort Lewis, WA

4:29 AM PDT on May 23, 2017 (GMT -0700)
Gray Army Air Field

Weather History for KGRF - March, 2013

Change the Weather History Date:

Sunday, March 10, 2013

  Actual Average Record
Temperature  
Mean Temperature 38 °F -  
Max Temperature 45 °F 50 °F 64 °F (2005)
Min Temperature 30 °F 35 °F 25 °F (2009)
Degree Days  
Heating Degree Days 28    
Moisture  
Dew Point 40 °F    
Average Humidity 94    
Maximum Humidity 100    
Minimum Humidity 83    
Precipitation  
Precipitation 0.04 in - - ()
Sea Level Pressure  
Sea Level Pressure 30.46 in    
Wind  
Wind Speed 2 mph (East)    
Max Wind Speed 5 mph    
Max Gust Speed -    
Visibility 10 miles    
Events      
Averages and records for this station are not official NWS values.
T = Trace of Precipitation, MM = Missing Value Source: NWS Daily Summary

Daily Weather History Graph

Daily Weather History Graph

Search for Another Location

Airport or City:

Trip Planner

Search our weather history database for the weather conditions in past years. The results will help you decide how hot, cold, wet, or windy it might be!

Date:

Astronomy

Mar. 10, 2013 Rise Set
Actual Time 7:32 AM PDT 7:09 PM PDT
Civil Twilight 7:02 AM PDT 7:39 PM PDT
Nautical Twilight 6:26 AM PDT 8:15 PM PDT
Astronomical Twilight 5:50 AM PDT 8:51 PM PDT
Moon 6:37 AM PDT (3/10) 6:22 PM PDT (3/10)
Length of Visible Light 12h 37m
Length of Day
11h 37m
Waning Crescent, 1% of the Moon is Illuminated
Mar 10
Waning Crescent
Mar 11
New
Mar 19
First Quarter
Mar 27
Full
Apr 2
Last Quarter

Hourly Weather History & Observations

Time (PDT) Temp. Windchill Dew Point Humidity Pressure Visibility Wind Dir Wind Speed Gust Speed Precip Events Conditions
12:58 AM 31.8 °F - 31.1 °F 97% 30.51 in 10.0 mi ESE 2.3 mph - N/A   Clear
1:58 AM 30.9 °F 26.2 °F 30.2 °F 97% 30.51 in 10.0 mi SSE 4.6 mph - N/A   Partly Cloudy
3:58 AM 33.1 °F - 32.9 °F 99% 30.50 in 10.0 mi Calm Calm - N/A   Overcast
5:54 AM 33.8 °F - 33.8 °F 100% 30.48 in 10.0 mi ESE 2.3 mph - N/A   Light Drizzle
5:58 AM 34.7 °F - 34.2 °F 98% 30.50 in 10.0 mi East 2.3 mph - 0.00 in   Light Drizzle
6:07 AM 35.6 °F 31.7 °F 33.8 °F 93% 30.49 in 10.0 mi SSE 4.6 mph - N/A   Scattered Clouds
6:58 AM 35.6 °F - 35.2 °F 99% 30.50 in 10.0 mi SE 1.2 mph - 0.00 in   Overcast
7:58 AM 36.1 °F 33.5 °F 36.0 °F 99% 30.49 in 10.0 mi SE 3.5 mph - 0.01 in   Overcast
8:58 AM 38.3 °F 35.9 °F 37.9 °F 99% 30.48 in 10.0 mi East 3.5 mph - N/A   Overcast
9:58 AM 40.1 °F - 39.4 °F 97% 30.49 in 10.0 mi Calm Calm - N/A   Overcast
10:58 AM 42.1 °F - 38.5 °F 87% 30.48 in 10.0 mi WNW 2.3 mph - N/A   Overcast
11:38 AM 42.8 °F 40.1 °F 39.2 °F 87% 30.46 in 10.0 mi WNW 4.6 mph - N/A   Overcast
11:43 AM 42.8 °F 41.1 °F 39.2 °F 87% 30.46 in 10.0 mi NW 3.5 mph - N/A   Overcast
11:53 AM 42.8 °F 40.1 °F 41.0 °F 93% 30.46 in 10.0 mi NW 4.6 mph - N/A   Overcast
11:58 AM 43.2 °F 40.5 °F 41.0 °F 92% 30.48 in 10.0 mi NW 4.6 mph - 0.01 in   Overcast
12:03 PM 42.8 °F 41.1 °F 41.0 °F 93% 30.46 in 10.0 mi NW 3.5 mph - N/A   Overcast
12:23 PM 42.8 °F 41.1 °F 41.0 °F 93% 30.46 in 10.0 mi NNW 3.5 mph - N/A   Overcast
12:53 PM 42.8 °F - 39.2 °F 87% 30.46 in 10.0 mi NW 1.2 mph - N/A   Overcast
12:58 PM 43.0 °F - 39.7 °F 88% 30.48 in 10.0 mi Calm Calm - N/A   Overcast
1:58 PM 43.9 °F - 40.3 °F 87% 30.47 in 10.0 mi South 2.3 mph - 0.01 in   Overcast
2:58 PM 44.6 °F - 40.6 °F 86% 30.46 in 10.0 mi Variable 1.2 mph - N/A   Overcast
3:28 PM 44.6 °F - 41.0 °F 87% 30.44 in 10.0 mi Calm Calm - N/A   Overcast
3:48 PM 44.6 °F 43.1 °F 41.0 °F 87% 30.44 in 10.0 mi South 3.5 mph - N/A   Overcast
3:53 PM 44.6 °F - 41.0 °F 87% 30.44 in 10.0 mi SW 1.2 mph - N/A   Overcast
3:58 PM 44.6 °F 43.1 °F 41.0 °F 87% 30.46 in 10.0 mi SSE 3.5 mph - N/A   Overcast
4:03 PM 44.6 °F - 41.0 °F 87% 30.44 in 10.0 mi South 2.3 mph - N/A   Overcast
4:08 PM 44.6 °F - 41.0 °F 87% 30.44 in 10.0 mi South 2.3 mph - N/A   Overcast
4:58 PM 45.5 °F 44.2 °F 40.6 °F 83% 30.45 in 10.0 mi ESE 3.5 mph - N/A   Overcast
5:08 PM 44.6 °F - 42.8 °F 93% 30.43 in 10.0 mi East 2.3 mph - N/A   Overcast
5:58 PM 44.8 °F - 42.6 °F 92% 30.45 in 10.0 mi East 1.2 mph - N/A   Overcast
6:13 PM 44.6 °F - 42.8 °F 93% 30.42 in 10.0 mi NE 2.3 mph - N/A   Overcast
6:18 PM 44.6 °F - 42.8 °F 93% 30.43 in 10.0 mi ENE 2.3 mph - N/A   Overcast
6:23 PM 44.6 °F - 42.8 °F 93% 30.43 in 10.0 mi ENE 2.3 mph - N/A   Overcast
6:38 PM 44.6 °F - 42.8 °F 93% 30.43 in 10.0 mi NE 2.3 mph - N/A   Overcast
6:58 PM 44.4 °F - 43.2 °F 95% 30.45 in 10.0 mi NE 2.3 mph - N/A   Overcast
7:13 PM 44.6 °F - 42.8 °F 93% 30.43 in 10.0 mi NE 2.3 mph - N/A   Overcast
7:18 PM 44.6 °F - 42.8 °F 93% 30.43 in 10.0 mi NE 1.2 mph - N/A   Overcast
7:58 PM 44.1 °F - 43.7 °F 99% 30.45 in 5.0 mi East 2.3 mph - N/A   Overcast
7:59 PM 44.6 °F - 42.8 °F 93% 30.43 in 5.0 mi East 1.2 mph - N/A   Overcast
8:49 PM 42.8 °F - 42.8 °F 100% 30.43 in 10.0 mi Calm Calm - N/A   Overcast
8:58 PM 43.5 °F - 43.3 °F 99% 30.45 in 10.0 mi ESE 1.2 mph - 0.01 in   Overcast
9:58 PM 43.2 °F - 43.0 °F 99% 30.44 in 10.0 mi SE 1.2 mph - N/A   Overcast
10:38 PM 42.8 °F - 42.8 °F 100% 30.43 in 10.0 mi SSE 2.3 mph - N/A   Overcast
10:43 PM 42.8 °F - 42.8 °F 100% 30.43 in 10.0 mi SSE 2.3 mph - N/A   Overcast
10:58 PM 43.0 °F - 42.8 °F 99% 30.45 in 10.0 mi ESE 1.2 mph - N/A   Overcast
11:58 PM 43.0 °F - 42.8 °F 99% 30.45 in 10.0 mi SSE 1.2 mph - N/A   Overcast
12:03 AM 42.8 °F - 42.8 °F 100% 30.43 in 10.0 mi Calm Calm - N/A   Overcast
12:39 AM 42.8 °F - 42.8 °F 100% 30.44 in 10.0 mi Calm Calm - N/A   Overcast
12:54 AM 42.8 °F - 42.8 °F 100% 30.43 in 9.0 mi NE 1.2 mph - N/A   Overcast
12:58 AM 43.2 °F - 43.0 °F 99% 30.45 in 9.0 mi NE 1.2 mph - N/A   Overcast